Weather History for Cape Girardeau, MO

Change the Weather History Date:

Saturday, February 16, 2013

  Actual Average Record
Temperature  
Mean Temperature 31 °F 38 °F  
Max Temperature 39 °F 48 °F 71 °F (1961)
Min Temperature 23 °F 28 °F 10 °F (2007)
Degree Days  
Heating Degree Days 34 27  
Month to date heating degree days 408 461  
Since 1 July heating degree days 2907 3199  
Cooling Degree Days 0 0  
Month to date cooling degree days 0 0  
Year to date cooling degree days 0 0  
Moisture  
Dew Point 14 °F    
Average Humidity 54    
Maximum Humidity 81    
Minimum Humidity 27    
Precipitation  
Precipitation 0.00 in 0.12 in 0.80 in (1967)
Month to date precipitation 0.71 1.98  
Year to date precipitation 4.29 5.45  
Sea Level Pressure  
Sea Level Pressure 30.23 in    
Wind  
Wind Speed 7 mph (NNW)    
Max Wind Speed 17 mph    
Max Gust Speed 22 mph    
Visibility 10 miles    
Events      
T = Trace of Precipitation, MM = Missing Value Source: NWS Daily Summary

Daily Weather History Graph

Daily Weather History Graph

Search for Another Location

Airport:

Trip Planner

Search our weather history database for the weather conditions in past years. The results will help you decide how hot, cold, wet, or windy it might be!

Date:

Astronomy

Feb. 16, 2013 Rise Set
Actual Time 6:45 AM CST 5:39 PM CST
Civil Twilight 6:19 AM CST 6:06 PM CST
Nautical Twilight 5:48 AM CST 6:36 PM CST
Astronomical Twilight 5:18 AM CST 7:06 PM CST
Moon 10:08 AM CST No Moon Set
Length of Visible Light 11h 46m
Length of Day
10h 53m
Waxing Crescent, 39% of the Moon is Illuminated
Feb 16
Waxing Crescent
Feb 17
First Quarter
Feb 25
Full
Mar 4
Last Quarter
Mar 11
New

Hourly Weather History & Observations

Time (CST) Temp. Windchill Dew Point Humidity Pressure Visibility Wind Dir Wind Speed Gust Speed Precip Events Conditions
12:53 AM 28.0 °F 24.2 °F 19.0 °F 69% 30.22 in 10.0 mi WNW 3.5 mph - N/A   Clear
1:53 AM 27.0 °F 23.0 °F 19.9 °F 75% 30.21 in 10.0 mi WSW 3.5 mph - N/A   Clear
2:53 AM 27.0 °F 18.7 °F 16.0 °F 63% 30.21 in 10.0 mi NW 8.1 mph - N/A   Clear
3:53 AM 28.0 °F 18.1 °F 18.0 °F 66% 30.22 in 10.0 mi NW 11.5 mph - N/A   Overcast
4:53 AM 27.0 °F 17.3 °F 17.1 °F 66% 30.23 in 10.0 mi North 10.4 mph - N/A   Clear
5:53 AM 26.6 °F 17.5 °F 17.6 °F 69% 30.22 in 10.0 mi North 9.2 mph - N/A   Clear
6:53 AM 25.0 °F 16.3 °F 17.1 °F 72% 30.25 in 10.0 mi North 8.1 mph - N/A   Clear
7:53 AM 27.0 °F 17.3 °F 16.0 °F 63% 30.26 in 10.0 mi North 10.4 mph - N/A   Clear
8:53 AM 28.9 °F 19.2 °F 14.0 °F 54% 30.27 in 10.0 mi NNW 11.5 mph - N/A   Clear
9:53 AM 30.9 °F 22.2 °F 14.0 °F 50% 30.27 in 10.0 mi NNW 10.4 mph - N/A   Clear
10:53 AM 33.1 °F 23.4 °F 12.9 °F 43% 30.28 in 10.0 mi NW 13.8 mph 18.4 mph N/A   Clear
11:53 AM 35.1 °F 26.4 °F 12.9 °F 40% 30.26 in 10.0 mi NNW 12.7 mph 20.7 mph N/A   Clear
12:53 PM 36.0 °F 29.6 °F 10.0 °F 34% 30.24 in 10.0 mi North 8.1 mph - N/A   Clear
1:53 PM 37.0 °F 29.3 °F 7.0 °F 29% 30.22 in 10.0 mi NW 11.5 mph 18.4 mph N/A   Clear
2:53 PM 37.9 °F 31.5 °F 7.0 °F 28% 30.21 in 10.0 mi NNW 9.2 mph 20.7 mph N/A   Clear
3:53 PM 37.9 °F 32.7 °F 7.0 °F 28% 30.21 in 10.0 mi Variable 6.9 mph - N/A   Clear
4:53 PM 37.0 °F 33.3 °F 6.1 °F 28% 30.20 in 10.0 mi NW 4.6 mph - N/A   Clear
5:53 PM 33.1 °F - 10.0 °F 38% 30.21 in 10.0 mi Calm Calm - N/A   Clear
6:53 PM 30.0 °F 25.2 °F 17.1 °F 59% 30.22 in 10.0 mi South 4.6 mph - N/A   Clear
7:53 PM 26.1 °F - 15.1 °F 63% 30.22 in 10.0 mi Calm Calm - N/A   Clear
8:53 PM 24.1 °F - 17.1 °F 75% 30.22 in 10.0 mi Calm Calm - N/A   Clear
9:53 PM 24.1 °F - 17.1 °F 75% 30.23 in 10.0 mi Calm Calm - N/A   Clear
10:53 PM 24.1 °F - 18.0 °F 77% 30.22 in 10.0 mi Calm Calm - N/A   Clear
11:53 PM 23.0 °F - 18.0 °F 81% 30.22 in 10.0 mi Calm Calm - N/A   Clear